Welcome to the New NWS' Forecast!
Most changes are behind the scenes, but click here for differences you might notice.
Latest weather observations around

EW3298 Indio (E3298)

Using English Units (Switch to International System of Units)
Date/ Time (PST) Wind (mph) Vis. (mi) Weather Sky Cond. Temp (°F) Rel. Humidity Wind Chill (°F) Heat Index (°F) Pressure Precip. (in)
Air Dwpt 6 hour Altimeter (inHg) Sea level (inHg) 1 hr 3 hr 6 hr
Max Min
Nov 18 00:14 WNW 8   Clear   69 52     55%     30.03        
Nov 17 23:59 NW 9   Clear   69 52     55%     30.03        
Nov 17 23:44 NW 5   Clear   69 52     55%     30.03        
Nov 17 23:29 WNW 3   Clear   69 52     54%     30.02        
Nov 17 23:14 WNW 2   Clear   69 52     55%     30.01        
Nov 17 22:59 NW 1   Clear   70 53     54%     30.02        
Nov 17 22:43 WNW 9   Clear   70 53     55%     30.01        
Nov 17 22:28 NW 8   Clear   70 53     54%     29.99        
Nov 17 22:14 WNW 9   Clear   71 54     54%   70 29.99        
Nov 17 21:59 NW 8   Clear   71 53     53%   70 29.99        
Nov 17 21:43 WNW 9   Clear   71 52     51%   70 29.98        
Nov 17 21:28 W 6   Clear   71 52     51%   70 29.98        
Nov 17 21:13 WNW 4   Clear   72 52     49%   71 29.96        
Nov 17 20:58 W 3   Clear   72 51     48%   71 29.97        
Nov 17 20:43 WNW 7   Clear   72 51     48%   71 29.96        
Nov 17 20:28 WNW 6   Clear   72 51     47%   71 29.96        
Nov 17 20:13 WNW 7   Clear   73 51     46%   72 29.95        
Nov 17 19:58 WNW 6   Clear   73 51     46%   72 29.95        
Nov 17 19:45 NW 7   Clear   73 50     45%   72 29.95        
Nov 17 19:36 NW 7   Clear   73 50     45%   72 29.94        
Nov 17 19:21 NW 5   Clear   73 50     45%   72 29.94        
Nov 17 18:58 NW 5   Clear   73 50     44%   72 29.95        
Nov 17 18:43 NW 7   Clear   74 51     44%   73 29.93        
Nov 17 18:28 NW 7   Clear   74 50     43%   73 29.93        
Nov 17 18:14 NW 8   Clear   74 49     42%   73 29.92        
Nov 17 17:58 NW 7   Clear   75 50     41%   74 29.91        
Nov 17 17:43 NW 9   Clear   75 49     40%   74 29.91        
Nov 17 17:28 NW 6   Clear   75 48     39%   74 29.91        
Nov 17 17:13 NW 6   Clear   76 49     39%   75 29.91        
Nov 17 16:59 NW 5   Clear   76 49     38%   75 29.89        
Nov 17 16:43 NW 7   Clear   77 49     37%   76 29.89        
Nov 17 16:28 NW 7   Clear   77 49     37%   76 29.89        
Nov 17 16:13 NNW 10   Clear   78 49     36%   77 29.89        
Nov 17 15:58 NNW 1   Clear   79 49     35%   78 29.88        
Nov 17 15:45 Calm   Clear   79 49     35%   78 29.88        
Nov 17 15:28 N 9   Clear   80 49     34%   79 29.88        
Nov 17 15:13 Calm   Clear   81 49     33%   80 29.87        
Nov 17 14:58 Calm   Clear   81 49     33%   80 29.88        
Nov 17 14:43 Calm   Clear   81 51     35%   80 29.88        
Nov 17 14:28 Calm   Clear   81 50     34%   80 29.88        
Nov 17 14:13 Calm   Clear   81 51     35%   80 29.88        
Nov 17 13:58 Calm   Clear   81 51     35%   80 29.9        
Nov 17 13:43 Calm   Clear   80 51     36%   79 29.9        
Nov 17 13:29 Calm   Clear   80 51     37%   79 29.9        
Nov 17 13:13 Calm   Clear   80 52     38%   79 29.9        
Nov 17 12:58 Calm   Clear   79 51     38%   78 29.91        
Nov 17 12:43 Calm   Clear   79 51     38%   78 29.91        
Nov 17 12:28 Calm   Clear   79 51     38%   78 29.92        
Nov 17 12:13 Calm   Clear   79 51     38%   78 29.92        
Nov 17 11:58 NW 1   Clear   78 51     39%   77 29.93        
Nov 17 11:43 NW 1   Clear   78 51     39%   77 29.93        
Nov 17 11:28 NW 2   Clear   77 51     40%   76 29.93        
Nov 17 11:13 NW 4   Clear   77 51     40%   76 29.94        
Nov 17 10:58 WNW 2   Clear   76 51     41%   75 29.95        
Nov 17 10:43 NW 8   Clear   75 50     41%   74 29.96        
Nov 17 10:28 NW 6   Clear   75 49     40%   74 29.96        
Nov 17 10:13 NW 1   Clear   75 50     42%   74 29.97        
Nov 17 09:58 NW 8   Clear   75 50     41%   74 29.96        
Nov 17 09:43 WNW 2   Clear   75 49     40%   74 29.96        
Nov 17 09:28 Calm   Clear   75 49     40%   74 29.95        
Nov 17 09:12 NW 7   Clear   74 49     41%   73 29.96        
Nov 17 08:58 WNW 1   Clear   74 49     42%   73 29.97        
Nov 17 08:42 NW 8   Clear   74 49     42%   73 29.96        
Nov 17 08:30 WNW 3   Clear   73 49     43%   72 29.95        
Nov 17 08:12 NW 3   Clear   72 49     44%   71 29.96        
Nov 17 07:58 Calm   Clear   71 49     46%   70 29.95        
Nov 17 07:43 Calm   Clear   70 49     47%     29.95        
Nov 17 07:27 Calm   Clear   70 50     49%     29.94        
Nov 17 07:12 Calm   Clear   69 49     49%     29.94        
Nov 17 06:57 WNW 1   Clear   69 50     51%     29.93        
Nov 17 06:43 Calm   Clear   69 50     50%     29.92        
Nov 17 06:27 Calm   Clear   69 49     49%     29.91        
Nov 17 06:12 WNW 2   Clear   70 49     47%     29.91        
Nov 17 05:57 W 4   Clear   71 48     44%   70 29.92        
Nov 17 05:42 WNW 3   Clear   71 47     43%   70 29.91        
Nov 17 05:27 WNW 3   Clear   70 47     44%     29.91        
Nov 17 05:12 WNW 4   Clear   64 47     55%     29.91        
Nov 17 04:57 Calm   Clear   62 49     63%     29.91        
Nov 17 04:42 Calm   Clear   62 49     62%     29.9        
Nov 17 04:27 Calm   Clear   62 48     61%     29.9        
Nov 17 04:12 Calm   Clear   62 49     62%     29.9        
Nov 17 03:57 Calm   Clear   62 48     61%     29.89        
Nov 17 03:42 Calm   Clear   63 49     60%     29.88        
Nov 17 03:27 Calm   Clear   63 49     60%     29.89        
Nov 17 03:12 Calm   Clear   63 48     59%     29.88        
Nov 17 02:57 Calm   Clear   64 48     57%     29.88        
Nov 17 02:42 Calm   Clear   64 49     58%     29.89        
Nov 17 02:27 Calm   Clear   64 48     57%     29.89        
Nov 17 02:12 Calm   Clear   65 48     55%     29.89        
Nov 17 01:57 Calm   Clear   65 48     54%     29.88        
Nov 17 01:42 Calm   Clear   66 49     54%     29.89        
Nov 17 01:27 Calm   Clear   66 48     53%     29.89        
Nov 17 01:14 Calm   Clear   67 49     52%     29.89        
Nov 17 00:57 Calm   Clear   67 47     49%     29.9        
Nov 17 00:42 Calm   Clear   67 47     49%     29.9        
Nov 17 00:27 Calm   Clear   68 48     48%     29.89        
Nov 17 00:12 Calm   Clear   68 47     47%     29.89        
Nov 16 23:57 Calm   Clear   68 47     47%     29.89        
Nov 16 23:42 Calm   Clear   69 47     46%     29.89        
Nov 16 23:27 Calm   Clear   70 48     45%     29.88        
Nov 16 23:11 Calm   Clear   71 47     42%   70 29.88        
Nov 16 22:57 Calm   Clear   72 47     41%   71 29.88        
Nov 16 22:42 WNW 2   Clear   72 46     40%   71 29.89        
Nov 16 22:26 Calm   Clear   71 46     41%   70 29.89        
Nov 16 22:12 Calm   Clear   71 47     42%   70 29.89        
Nov 16 21:56 WNW 1   Clear   74 47     39%   73 29.9        
Nov 16 21:41 Calm   Clear   74 47     38%   73 29.89        
Nov 16 21:26 WNW 1   Clear   74 47     38%   73 29.9        
Nov 16 21:11 Calm   Clear   70 49     47%     29.89        
Nov 16 20:56 Calm   Clear   71 49     46%   70 29.9        
Nov 16 20:41 Calm   Clear   71 49     46%   70 29.89        
Nov 16 20:26 Calm   Clear   71 49     45%   70 29.89        
Nov 16 20:11 Calm   Clear   72 49     44%   71 29.88        
Nov 16 19:56 Calm   Clear   72 47     41%   71 29.88        
Nov 16 19:43 Calm   Clear   72 46     40%   71 29.88        
Nov 16 19:34 Calm   Clear   72 46     40%   71 29.88        
Nov 16 19:16 Calm   Clear   72 48     42%   71 29.88        
Nov 16 18:56 Calm   Clear   73 48     41%   72 29.87        
Nov 16 18:41 Calm   Clear   73 49     42%   72 29.87        
Nov 16 18:26 Calm   Clear   74 48     40%   73 29.88        
Nov 16 18:11 Calm   Clear   74 48     40%   73 29.86        
Nov 16 17:57 Calm   Clear   75 48     39%   74 29.86        
Nov 16 17:26 Calm   Clear   76 47     36%   75 29.85        
Nov 16 17:11 Calm   Clear   76 48     37%   75 29.85        
Nov 16 16:56 Calm   Clear   77 48     36%   76 29.85        
Nov 16 16:41 Calm   Clear   78 47     34%   77 29.84        
Nov 16 16:26 Calm   Clear   79 48     34%   78 29.84        
Nov 16 16:11 Calm   Clear   79 46     31%   78 29.84        
Nov 16 15:56 Calm   Clear   80 47     31%   79 29.84        
Nov 16 15:41 Calm   Clear   80 46     30%   79 29.84        
Nov 16 15:26 Calm   Clear   80 45     29%   79 29.84        
Nov 16 15:11 Calm   Clear   80 46     30%   79 29.84        
Nov 16 14:56 Calm   Clear   80 47     32%   79 29.84        
Nov 16 14:41 Calm   Clear   80 47     32%   79 29.85        
Nov 16 14:26 Calm   Clear   81 49     33%   80 29.85        
Nov 16 14:11 Calm   Clear   81 48     32%   80 29.85        
Nov 16 13:56 Calm   Clear   81 46     29%   80 29.85        
Nov 16 13:41 Calm   Clear   82 47     29%   80 29.86        
Nov 16 13:26 Calm   Clear   81 45     28%   80 29.86        
Nov 16 13:11 Calm   Clear   81 47     30%   80 29.87        
Nov 16 12:56 SSW 3   Clear   80 48     33%   79 29.87        
Nov 16 12:41 Calm   Clear   79 52     39%   78 29.88        
Nov 16 12:26 Calm   Clear   78 52     40%   77 29.88        
Nov 16 12:11 Calm   Clear   76 48     37%   75 29.89        
Nov 16 11:56 Calm   Clear   76 46     35%   75 29.9        
Nov 16 11:41 SSW 1   Clear   75 44     33%   74 29.91        
Nov 16 11:26 SSW 2   Clear   75 45     35%   74 29.91        
Nov 16 11:11 Calm   Clear   74 44     34%   73 29.92        
Nov 16 10:56 Calm   Clear   73 46     38%   72 29.92        
Nov 16 10:41 Calm   Clear   73 45     37%   72 29.93        
Nov 16 10:26 Calm   Clear   72 46     39%   71 29.93        
Nov 16 10:11 Calm   Clear   72 47     41%   71 29.93        
Nov 16 09:55 Calm   Clear   71 45     40%   70 29.94        
Nov 16 09:40 Calm   Clear   70 45     41%     29.94        
Nov 16 09:25 Calm   Clear   69 44     41%     29.94        
Nov 16 09:10 Calm   Clear   69 44     41%     29.93        
Nov 16 08:56 Calm   Clear   68 43     41%     29.94        
Nov 16 08:41 Calm   Clear   67 42     40%     29.93        
Nov 16 08:25 Calm   Clear   67 43     42%     29.94        
Nov 16 08:10 Calm   Clear   66 42     42%     29.93        
Nov 16 07:55 Calm   Clear   64 43     47%     29.93        
Nov 16 07:40 Calm   Clear   63 43     48%     29.93        
Nov 16 07:26 Calm   Clear   62 42     48%     29.93        
Nov 16 07:11 Calm   Clear   61 41     48%     29.92        
Nov 16 06:55 Calm   Clear   61 43     51%     29.91        
Nov 16 06:40 Calm   Clear   61 43     52%     29.91        
Nov 16 06:25 Calm   Clear   60 42     52%     29.91        
Nov 16 06:10 Calm   Clear   61 43     51%     29.91        
Nov 16 05:55 Calm   Clear   61 42     50%     29.9        
Nov 16 05:40 Calm   Clear   61 42     49%     29.9        
Nov 16 05:25 Calm   Clear   61 41     47%     29.9        
Nov 16 05:10 Calm   Clear   61 41     47%     29.89        
Nov 16 04:55 Calm   Clear   61 40     46%     29.89        
Nov 16 04:40 Calm   Clear   61 40     45%     29.89        
Nov 16 04:28 Calm   Clear   61 39     44%     29.89        
Nov 16 04:10 Calm   Clear   61 40     45%     29.89        
Nov 16 03:55 Calm   Clear   62 40     44%     29.89        
Nov 16 03:40 Calm   Clear   62 40     44%     29.89        
Nov 16 03:25 Calm   Clear   62 39     42%     29.88        
Nov 16 03:10 Calm   Clear   62 39     43%     29.88        
Nov 16 02:55 Calm   Clear   62 40     45%     29.89        
Nov 16 02:40 Calm   Clear   62 39     43%     29.89        
Nov 16 02:25 Calm   Clear   63 39     41%     29.89        
Nov 16 02:10 Calm   Clear   62 38     41%     29.9        
Nov 16 01:55 Calm   Clear   63 40     42%     29.9        
Nov 16 01:40 Calm   Clear   63 39     41%     29.9        
Nov 16 01:25 Calm   Clear   64 40     41%     29.9        
Nov 16 01:10 SSW 1   Clear   63 40     43%     29.9        
Nov 16 00:55 Calm   Clear   63 41     45%     29.9        
Nov 16 00:40 SSW 1   Clear   63 42     46%     29.91        
Nov 16 00:24 Calm   Clear   63 44     49%     29.91        
Nov 16 00:10 SSW 1   Clear   63 44     50%     29.91        
Nov 15 23:54 Calm   Clear   64 43     47%     29.93        
Nov 15 23:39 Calm   Clear   65 45     48%     29.93        
Nov 15 23:24 Calm   Clear   65 45     48%     29.92        
Nov 15 23:10 Calm   Clear   65 45     49%     29.93        
Nov 15 22:54 Calm   Clear   65 46     50%     29.92        
Nov 15 22:39 Calm   Clear   65 47     52%     29.93        
Nov 15 22:24 Calm   Clear   64 45     51%     29.92        
Nov 15 22:10 Calm   Clear   65 46     51%     29.93        
Nov 15 21:55 Calm   Clear   65 47     52%     29.93        
Nov 15 21:40 Calm   Clear   66 50     56%     29.93        
Nov 15 21:24 Calm   Clear   65 50     59%     29.93        
Nov 15 21:12 Calm   Clear   66 51     59%     29.93        
Nov 15 20:54 Calm   Clear   66 52     60%     29.93        
Nov 15 20:40 Calm   Clear   66 53     62%     29.92        
Nov 15 20:24 Calm   Clear   66 54     66%     29.93        
Nov 15 20:09 Calm   Clear   67 55     65%     29.93        
Nov 15 19:54 Calm   Clear   67 54     64%     29.92        
Nov 15 19:39 Calm   Clear   67 55     65%     29.93        
Nov 15 19:25 Calm   Clear   68 55     63%     29.92        
Nov 15 19:09 Calm   Clear   69 55     62%     29.92        
Nov 15 18:54 Calm   Clear   68 54     62%     29.92        
Nov 15 18:40 Calm   Clear   69 55     61%     29.92        
Nov 15 18:24 Calm   Clear   69 54     59%     29.91        
Nov 15 18:09 Calm   Clear   70 55     59%     29.91        
Nov 15 17:54 Calm   Clear   71 55     58%   71 29.91        
Nov 15 17:39 Calm   Clear   72 54     54%   71 29.9        
Nov 15 17:24 Calm   Clear   73 54     51%   72 29.9        
Nov 15 17:09 Calm   Clear   74 52     47%   73 29.9        
Nov 15 16:54 Calm   Clear   75 52     45%   74 29.89        
Nov 15 16:39 Calm   Clear   77 53     43%   76 29.88        
Nov 15 16:24 Calm   Clear   78 51     39%   77 29.88        
Nov 15 16:09 Calm   Clear   79 50     36%   78 29.88        
Nov 15 15:54 Calm   Clear   80 50     35%   79 29.88        
Nov 15 15:39 Calm   Clear   80 46     30%   79 29.88        
Nov 15 15:24 Calm   Clear   81 46     29%   80 29.88        
Nov 15 15:10 Calm   Clear   81 44     27%   80 29.88        
Nov 15 14:54 Calm   Clear   81 41     24%   80 29.88        
Nov 15 14:39 Calm   Clear   82 44     26%   80 29.88        
Nov 15 14:24 Calm   Clear   82 44     26%   80 29.89        
Nov 15 14:09 Calm   Clear   81 42     25%   80 29.89        
Nov 15 13:56 Calm   Clear   81 41     24%   80 29.89        
Nov 15 13:39 Calm   Clear   81 42     25%   80 29.89        
Nov 15 13:24 Calm   Clear   81 41     24%   80 29.9        
Nov 15 13:09 Calm   Clear   81 42     25%   80 29.91        
Nov 15 12:54 Calm   Clear   80 42     26%   79 29.91        
Nov 15 12:39 Calm   Clear   79 41     26%   78 29.91        
Nov 15 12:24 Calm   Clear   78 42     28%   77 29.92        
Nov 15 12:09 Calm   Clear   78 40     26%   77 29.92        
Nov 15 11:54 Calm   Clear   78 44     30%   77 29.92        
Nov 15 11:39 Calm   Clear   78 44     30%   77 29.93        
Nov 15 11:24 Calm   Clear   79 45     30%   78 29.93        
Nov 15 11:09 Calm   Clear   79 45     30%   78 29.94        
Nov 15 10:54 Calm   Clear   78 43     29%   77 29.95        
Nov 15 10:39 Calm   Clear   77 40     27%   76 29.96        
Nov 15 10:24 Calm   Clear   76 41     28%   75 29.96        
Nov 15 10:08 Calm   Clear   76 41     29%   75 29.96        
Nov 15 09:53 Calm   Clear   74 40     29%   72 29.96        
Nov 15 09:38 Calm   Clear   73 41     31%   71 29.96        
Nov 15 09:23 Calm   Clear   72 41     32%   70 29.96        
Nov 15 09:08 Calm   Clear   72 41     32%   70 29.96        
Nov 15 08:53 Calm   Clear   71 41     34%   69 29.96        
Nov 15 08:38 Calm   Clear   69 39     34%     29.96        
Nov 15 08:23 Calm   Clear   68 39     35%     29.96        
Nov 15 08:08 Calm   Clear   67 39     36%     29.96        
Nov 15 07:53 Calm   Clear   66 39     37%     29.96        
Nov 15 07:38 Calm   Clear   65 39     39%     29.96        
Nov 15 07:23 SSW 1   Clear   65 39     38%     29.95        
Nov 15 07:08 SSW 2   Clear   64 39     40%     29.95        
Nov 15 06:53 S 2   Clear   63 40     42%     29.94        
Nov 15 06:39 Calm   Clear   62 39     42%     29.93        
Nov 15 06:23 S 1   Clear   62 39     42%     29.93        
Nov 15 06:09 Calm   Clear   62 39     42%     29.93        
Nov 15 05:53 Calm   Clear   62 39     42%     29.93        
Nov 15 05:38 Calm   Clear   62 38     41%     29.92        
Nov 15 05:23 Calm   Clear   63 39     41%     29.92        
Nov 15 05:08 Calm   Clear   62 38     41%     29.93        
Nov 15 04:53 Calm   Clear   62 38     41%     29.92        
Nov 15 04:38 Calm   Clear   62 37     40%     29.92        
Nov 15 04:23 S 1   Clear   62 38     41%     29.92        
Nov 15 04:08 Calm   Clear   63 38     40%     29.92        
Nov 15 03:53 Calm   Clear   62 38     41%     29.92        
Nov 15 03:38 Calm   Clear   62 39     42%     29.91        
Nov 15 03:23 Calm   Clear   63 39     41%     29.92        
Nov 15 03:08 Calm   Clear   61 38     43%     29.92        
Nov 15 02:53 Calm   Clear   61 40     46%     29.93        
Nov 15 02:38 Calm   Clear   61 42     50%     29.92        
Nov 15 02:23 Calm   Clear   61 42     50%     29.91        
Nov 15 02:08 Calm   Clear   61 41     48%     29.92        
Nov 15 01:53 Calm   Clear   61 42     50%     29.92        
Nov 15 01:38 Calm   Clear   61 42     50%     29.92        
Nov 15 01:23 Calm   Clear   61 43     51%     29.92        
Nov 15 01:08 Calm   Clear   62 43     50%     29.92        
Nov 15 00:52 Calm   Clear   62 43     49%     29.92        
Nov 15 00:37 Calm   Clear   63 44     49%     29.93        
Nov 15 00:23 Calm   Clear   63 44     50%     29.93        
Nov 15 00:07 Calm   Clear   63 44     50%     29.93        
Jun 12 04:49 WNW 5   Clear   66 46     48%     29.83        
Jun 11 22:31 NNW 12   Clear   69 47     45%     29.79        
Jun 11 21:16 NW 10   Clear   72 47     41%   71 29.75        
Jun 11 19:01 NW 9   Clear   81 47     30%   80 29.69        
Jun 11 17:00 NW 9   Clear   86 43     22%   83 29.66        
Jun 11 16:30 NW 9   Clear   87 45     23%   84 29.67        
Jun 11 16:16 NNW 8   Clear   87 46     24%   84 29.67        
Jun 11 15:16 NW 11   Clear   86 44     23%   83 29.68        
Jun 11 12:45 NW 11   Clear   83 47     28%   81 29.72        
Jun 11 11:30 NW 7   Clear   81 47     31%   80 29.72        
Jun 11 10:30 WNW 9   Clear   79 47     33%   78 29.72        
Jun 11 05:14 WNW 2   Clear   67 47     48%     29.66        
Jun 11 04:59 NW 6   Clear   68 48     48%     29.65        
Jun 11 03:44 WNW 6   Clear   69 48     48%     29.64        
Jun 11 00:13 NW 9   Clear   73 50     44%   72 29.63        
Jun 10 22:13 NNW 13   Clear   75 50     42%   74 29.63        
Jun 10 21:43 NW 11   Clear   77 51     40%   76 29.62        
Jun 10 21:13 NNW 8   Clear   78 50     38%   77 29.62        
Jun 10 19:13 NW 11   Clear   85 52     32%   83 29.6        
Jun 10 18:28 NW 8   Clear   88 51     28%   85 29.59        
Jun 10 17:43 NW 16   Clear   90 47     23%   87 29.59        
Jun 10 16:43 WNW 5   Clear   94 41     16%   90 29.59        
Jun 10 14:43 WNW 2   Clear   94 41     16%   90 29.63        
Jun 10 10:14 W 4   Clear   85 47     27%   83 29.7        
Jun 10 09:12 WNW 7   Clear   83 47     28%   81 29.7        
Jun 09 21:56 NW 8   Clear   82 52     36%   81 29.67        
Jun 09 17:11 NW 2   Clear   99 51     20%   96 29.62        
Jun 09 14:25 Calm   Clear   99 40     13%   94 29.68        
Jun 09 13:55 WNW 4   Clear   99 40     13%   94 29.68        
Jun 09 07:39 W 2   Clear   79 50     37%   78 29.75        
Jun 09 02:54 WNW 9   Clear   80 42     26%   79 29.73        
Jun 09 00:39 NW 3   Clear   83 32     16%   80 29.73        
Jun 08 15:23 W 5   Clear   101 41     13%   96 29.72        
Jun 08 14:38 Calm   Clear   99 45     16%   95 29.74        
Jun 08 13:23 NW 1   Clear   95 45     18%   91 29.78        
Jun 08 12:07 Calm   Clear   91 51     26%   88 29.83        
Jun 08 08:07 Calm   Clear   77 55     47%   77 29.85        
Jun 08 07:52 Calm   Clear   76 55     48%   76 29.84        
Jun 08 06:52 Calm   Clear   74 56     54%   74 29.81        
Jun 08 05:36 WNW 2   Clear   73 55     53%   72 29.79        
Jun 08 03:51 W 10   Clear   75 55     49%   75 29.77        
Jun 08 02:36 WNW 9   Clear   77 54     45%   77 29.76        
Jun 07 23:51 WNW 7   Clear   82 54     38%   81 29.75        
Jun 07 22:51 WNW 6   Clear   84 56     38%   83 29.75        
Jun 07 20:06 Calm   Clear   95 43     17%   91 29.7        
Jun 07 15:50 SE 3   Clear   97 42     15%   93 29.73        
Jun 07 12:20 Calm   Clear   91 49     24%   88 29.81        
Jun 07 12:05 ESE 1   Clear   91 50     25%   88 29.82        
Jun 07 09:19 Calm   Clear   83 58     42%   83 29.83        
Notice The following observation data may not be complete
Jun 07 09:04 Calm   Clear     58      %     29.83        
Jun 06 07:32 Calm   Clear   81 55     41%   81 29.8        
Jun 06 07:17 Calm   Clear   81 55     41%   81 29.8        
Jun 06 07:02 Calm   Clear   80 55     42%   80 29.79        
Jun 05 23:46 Calm   Clear   87 55     34%   85 29.73        
Jun 05 22:46 Calm   Clear   90 53     29%   88 29.72        
Jun 05 20:46 Calm   Clear   97 54     24%   95 29.67        
Jun 05 20:31 Calm   Clear   98 55     24%   96 29.66        
Jun 05 15:46 S 7   Clear   102 46     15%   98 29.66        
Jun 05 15:01 Calm   Clear   103 46     15%   99 29.67        
Jun 05 14:46 SW 5   Clear   103 46     15%   99 29.67